Tracking 19638 objects as of 21-Apr-2019
HD Live streaming from Space Station
objects crossing your sky now

BUCCANEER RMM

Track BUCCANEER RMM now!
10-day predictions


NORAD ID: 43014
Int'l Code: 2017-073B
Perigee: 465.0 km
Apogee: 819.6 km
Inclination: 97.7 °
Period: 97.4 minutes
Semi major axis: 7013 km
RCS: Unknown
Launch date: November 18, 2017
Source: United States (US)
Launch site: AIR FORCE WESTERN TEST RANGE (AFWTR)
aabbcc
Your satellite tracking list
Your tracking list is empty




NASA's NSSDC Master Catalog

Two Line Element Set (TLE):
1 43014U 17073B   19110.84773825  .00002180  00000-0  18129-3 0  9991
2 43014  97.7191  33.7151 0252784 351.8799   7.8355 14.78148048 76543
Source of the keplerian elements: AFSPC